Regional Weather Roundup
Issued by NWS

Home | Current Version | Previous Version | Text Only | Print | Product List | Glossary Off
Versions: 1 2 3 4 5 6 7 8 9 10 11 12 13 14 15 16 17 18 19 20 21 22 23 24 25 26 27 28 29 30 31 32 33 34 35 36 37 38 39 40 41 42 43 44 45 46 47 48 49 50

256
ASUS43 KBIS 262302
RWRND

NORTH DAKOTA REGIONAL WEATHER ROUNDUP
NATIONAL WEATHER SERVICE BISMARCK ND
600 PM CDT TUE JUL 26 2016

NOTE: "FAIR" INDICATES FEW OR NO CLOUDS BELOW 12,000 FEET WITH NO
SIGNIFICANT WEATHER AND/OR OBSTRUCTIONS TO VISIBILITY.


NDZ001>003-009>011-017-270000-
NORTHWEST NORTH DAKOTA

CITY           SKY/WX    TMP DP  RH WIND       PRES   REMARKS
WILLISTON      CLOUDY    79  53  40 NE10      30.07R
MINOT          CLOUDY    80  60  50 N13       30.04R
MINOT AFB      PTSUNNY   78  58  50 NE13      30.03S
$$

NDZ018>021-031>035-040>046-270000-
SOUTHWEST NORTH DAKOTA

CITY           SKY/WX    TMP DP  RH WIND       PRES   REMARKS
BISMARCK       CLOUDY    80  66  62 NE18      30.00F
DICKINSON      SUNNY     75  59  57 NE17G26   30.07R
GARRISON         N/A     71  69  93 W5        30.08R
HETTINGER ARPT MOSUNNY   80  60  50 NE15G30   30.07R
$$

NDZ004>008-012>016-024-026-027-054-270000-
NORTHEAST NORTH DAKOTA

CITY           SKY/WX    TMP DP  RH WIND       PRES   REMARKS
GRAND FORKS    PTSUNNY   84  67  56 NE9       29.95S
GRND FRKS AFB  CLOUDY    81  66  61 N10       29.97S
DEVILS LAKE    LGT RAIN  69  62  78 N15       30.02R
$$

NDZ022-023-025-028>030-036>039-047>053-270000-
SOUTHEAST NORTH DAKOTA

CITY           SKY/WX    TMP DP  RH WIND       PRES   REMARKS
FARGO          CLOUDY    82  72  71 E5        29.92F
JAMESTOWN      CLOUDY    73  65  75 SW9       30.00R
$$





USA.gov is the U.S. government's official web portal to all federal, state and local government web resources and services.